Weather in Palamos

Spain     41°51′02″N   3°07′47″E
temp.,
°C
wind,
m/s
gust,
m/s
humid.,
%
clouds,
%
prec.,
mm/h
press.,
hPa
HPBL,
m
5 march, fri
fri501:00+12sw56820 0.0 1019508
04:00+12wsw45840 0.0 1018424
07:00+11nnw33860 0.0 1018170
10:00+11n22820 0.0 1018171
13:00+12ene33860 0.0 1018270
16:00+12s118360 0.0 1017209
19:00+12wsw228230 0.0 1017112
22:00+13nw228480 0.0 101934
6 march, sat
sat601:00+13nne348489 0.0 102090
04:00+12ne468184 0.0 1020305
07:00+12ne567286 0.0 1021465
10:00+12nne677321 0.0 1023516
13:00+12ne677444 0.0 1024467
16:00+12nne6774100 0.0 1023409
19:00+12nne6779100 0.0 1023368
22:00+12nne5684100 0.0 1024334
7 march, sun
sun701:00+12nne458772 0.1 1024273
04:00+12nne458697 0.1 1022266
07:00+11n558799 0.1 1022232
10:00+12n5685100 0.0 1022305
13:00+13ene3386100 0.2 1021256
16:00+13e3382100 0.1 1018384
19:00+13ne3485100 0.1 1018289
22:00+12n458796 0.2 1018171
8 march, mon
mon801:00+12n798779 0.3 1017517
04:00+12nne9118636 0.0 1016655
07:00+12nne9118253 0.0 1016700
10:00+12nne9108280 0.0 1017726
13:00+12nne8107652 0.0 1017608
16:00+13ne7117582 0.0 1015407
19:00+13nne467643 0.0 1016129
22:00+13nw613715 0.0 1017504
9 march, tue
tue901:00+12n6117114 0.0 1018579
04:00+12nnw696945 0.0 1018609
07:00+11n687226 0.0 1018354
10:00+11n46658 0.0 1019419
13:00+13nne34615 0.0 1020298
16:00+13nnw13632 0.0 1019408
19:00+13wsw33726 0.0 1020234
22:00+12w46780 0.0 1023433